Torna al catalogo

STARLINK-38186

AttivoComunicazioniSSO
NORAD 100162·PAYLOAD·🇺🇸 United States

Lanciato Jul 25, 2026 da Vandenberg Space Force Base

Loading…

Prossimi Passaggi (prossime 24 ore)

TLE

AggiornatoSource: Space-Track

Epoca: Sep 14, 2026, 12:49 UTC

1 A0162U 26171Q   26257.53459957  .00012803  00000-0  39808-3 0  9990
2 A0162  97.2833 290.0902 0000992 104.3421 255.7932 15.33457523  7985

Traccia STARLINK-38186 in tempo reale con AllMySat

Download on the App Store